Starlink 30251

operational
NORAD ID: 57532 Int'l Des: 2023-115 Owner: SPXS Country: US Constellation: starlink
LEOCIRCULAR

Starlink 30251について

説明を読み込み中...

リアルタイム位置

3D地球を読み込み中...

次回通過

高度履歴

Altitude vs Time

uPlot chart will show altitude changes over time

軌道要素

1 57532U 23115M 25353.63640815 .00000593 00000-0 58985-4 0 9991
2 57532 43.0036 79.6073 0001258 271.3195 88.7503 15.02537632130274
Epoch: Dec 19, 2025 • Age: 16 hours

現在のステータス

高度 563.1 km
速度 7.59 km/s
衛星直下点 42.94°N, 44.36°W
打ち上げ日 Aug 8, 2023
運用期間 2.3 years
タイプ internet

技術仕様

分類 Payload
質量 730.00 kg
乾燥質量 700.00 kg
総質量 730.00 kg
長さ 0.30 m
直径 4.10 m
スパン 29.00 m
形状 Box + pan
製造者 SPXS
バスタイプ Starlink V2M
フェーズステータス In Orbit
所有者/国 SPXS/US

大規模コンステレーション

Loading constellations...